Wind_Speed
33 32 32 33 32 32 32 30 28 26 24 23 21 21 21 21 20 20 18 17 17 17 17 18 17 16 16 16 16 17 16 16 16 17 18 18 18 18 17 17 17 17 18 18
34 33 33 33 33 33 33 32 31 29 27 25 23 22 22 22 22 21 21 20 19 19 20 20 19 19 19 19 19 19 19 19 19 19 20 20 20 20 19 19 19 19 19 19
34 34 34 35 34 33 33 32 31 30 28 26 25 25 24 24 23 23 23 22 22 21 21 21 22 22 21 21 21 21 22 22 22 22 22 22 21 22 21 21 21 20 20 20
35 36 36 35 34 33 33 33 32 31 29 29 28 27 26 25 25 24 23 23 23 22 23 23 23 24 23 24 24 24 25 25 25 25 24 24 24 24 24 23 22 22 21 21
37 37 37 38 35 34 34 34 33 32 31 30 30 29 28 27 27 25 25 25 25 25 25 25 25 26 27 27 27 27 27 28 27 28 28 27 27 27 26 25 24 24 24 24
40 38 37 37 37 35 35 36 34 33 32 32 31 31 29 28 28 27 27 27 27 27 27 27 27 28 29 29 29 30 30 30 30 30 30 30 30 29 28 28 27 27 26 26
40 40 39 39 36 35 36 36 34 33 32 32 31 31 29 29 29 29 30 29 28 29 29 28 28 29 30 31 31 31 31 31 31 31 31 31 30 30 30 30 29 29 28 27
40 40 40 39 37 37 36 35 33 33 33 33 33 32 31 30 31 30 31 31 31 31 31 31 31 32 32 33 32 32 32 33 33 33 33 32 32 31 31 31 31 30 30 29
40 39 39 38 37 37 36 36 35 34 33 34 33 33 32 32 32 32 32 32 33 32 33 33 33 33 33 33 34 34 33 33 34 34 34 33 33 33 34 34 33 32 32 32
39 38 38 37 36 36 35 34 34 34 33 33 32 32 33 34 34 34 34 34 35 34 34 34 35 34 34 34 35 34 34 34 34 35 35 35 36 37 36 34 33 34 34 34
38 38 37 37 35 34 34 34 33 33 33 33 33 33 34 34 35 36 36 36 36 36 36 36 35 35 36 37 36 34 34 35 36 36 37 37 36 36 35 35 35 35 35 35
37 36 36 36 35 34 33 33 33 33 33 33 33 34 35 35 35 36 36 37 37 37 36 36 37 36 36 36 36 35 36 37 37 37 38 37 36 36 36 35 35 36 36 35
35 34 33 32 32 32 32 32 32 32 33 33 33 34 34 35 35 35 36 36 37 37 36 36 37 38 37 36 36 37 37 38 38 39 37 36 36 36 36 36 36 36 35 35
32 32 32 31 31 32 31 31 31 31 32 32 33 33 33 34 35 36 36 37 37 37 37 36 36 37 37 36 36 37 38 38 38 39 38 37 37 37 36 36 36 36 35 35
30 30 30 30 30 30 30 31 31 32 32 33 33 34 34 35 35 36 37 37 37 37 37 37 37 37 37 37 38 38 38 38 38 38 38 37 38 37 37 36 36 36 35 34
31 31 30 30 30 30 31 31 32 32 32 32 33 33 33 34 35 36 36 36 37 37 37 37 37 37 37 38 39 39 40 39 39 39 39 38 37 36 36 35 35 35 35 34
31 31 31 30 30 30 31 32 31 32 31 31 31 32 33 33 34 34 35 35 35 36 36 37 37 38 38 39 39 40 40 40 40 40 39 38 36 36 36 36 35 35 35 35
29 29 30 29 29 29 30 31 30 30 30 30 30 30 31 32 32 32 33 34 35 35 36 37 38 38 39 40 40 39 39 40 40 38 37 36 36 36 35 35 35 36 36 36
28 28 28 29 28 28 28 29 29 30 29 29 29 30 30 31 32 32 33 34 35 36 36 37 38 38 39 38 38 38 38 38 38 36 36 36 36 35 35 35 36 36 36 36
26 26 26 27 27 27 27 26 27 28 28 28 29 29 30 30 31 31 32 33 34 34 35 36 36 36 36 36 36 36 36 35 34 34 34 34 34 35 35 35 35 36 36 35
24 24 25 25 25 25 26 26 26 26 27 27 28 28 29 29 29 30 31 32 32 33 33 33 33 34 34 34 34 33 33 33 32 32 32 32 33 33 34 34 34 34 34 33
22 22 23 23 23 23 24 25 25 26 26 27 28 28 28 28 29 29 29 29 30 30 30 30 30 30 30 31 31 30 30 30 30 30 30 31 31 32 32 32 31 31 32 32
19 20 20 21 21 21 22 23 24 25 25 26 27 27 27 26 26 26 26 27 27 27 27 27 27 27 28 27 27 27 28 28 28 28 28 29 30 30 30 30 31 31 32 32
15 16 17 18 19 20 20 22 23 24 24 24 25 25 25 25 25 24 24 24 24 24 24 24 24 24 24 25 25 26 26 27 27 27 28 28 29 29 29 30 30 31 30 30
13 14 16 17 17 18 18 19 20 21 22 22 22 22 21 21 21 21 21 21 21 21 21 21 22 23 23 23 24 24 25 25 25 26 26 27 27 28 28 28 29 29 29 29
11 12 13 14 15 15 15 16 17 18 19 20 21 19 18 18 18 18 18 19 19 19 19 20 21 22 23 23 23 23 23 23 24 24 25 25 26 26 27 28 28 27 27 28
10 11 11 12 12 13 13 13 15 16 16 16 16 15 15 14 14 14 15 15 16 17 18 19 20 21 21 21 22 22 22 22 23 23 24 24 25 25 25 25 25 25 25 26
Wind_Direction
231 233 235 236 236 236 237 239 242 245 248 248 251 253 252 251 252 254 256 259 259 257 259 262 264 268 270 272 278 280 280 281 285 290 294 296 299 300 299 300 301 302 303 304
233 233 235 237 237 237 239 240 242 243 245 246 248 249 250 251 251 252 254 255 258 257 260 263 266 267 270 272 276 279 278 278 281 286 289 290 293 296 294 295 296 298 297 300
235 235 237 238 236 238 241 242 243 244 245 246 248 248 250 250 251 251 253 255 257 258 260 263 263 266 270 272 275 277 278 278 279 281 284 286 290 292 290 291 293 296 296 297
234 235 236 238 238 238 241 243 244 246 248 248 248 248 248 249 250 251 251 253 254 255 257 261 264 266 269 273 274 275 277 277 278 278 281 283 286 287 287 289 291 293 294 294
235 237 239 240 240 240 242 244 245 247 247 249 248 247 246 247 248 249 251 251 253 255 257 260 264 266 272 275 275 274 275 276 277 277 280 281 282 283 285 288 288 288 290 291
236 237 239 242 243 242 243 245 244 246 248 248 248 247 247 247 248 251 252 253 254 257 259 262 264 267 271 273 274 275 275 274 275 275 278 279 279 281 282 283 284 286 287 287
236 238 240 242 243 243 243 245 246 247 247 247 248 248 249 247 247 250 253 256 257 258 260 262 264 267 269 272 272 275 274 272 275 274 277 278 279 279 280 283 283 283 284 285
235 237 239 241 242 242 244 244 245 247 247 247 248 248 248 248 248 251 254 255 256 257 258 261 265 267 269 270 272 272 273 273 272 274 276 277 279 278 277 278 281 281 282 283
235 237 240 242 244 243 244 245 245 246 246 246 247 248 248 248 251 253 255 256 257 259 261 264 266 268 270 271 272 273 274 274 273 275 276 277 279 279 278 279 278 279 281 282
235 237 239 241 242 242 243 244 245 245 245 245 244 245 248 250 252 254 255 257 259 261 263 264 266 269 270 272 273 272 272 275 277 276 278 279 278 279 279 279 279 279 282 282
236 238 239 240 242 242 243 243 243 243 244 245 245 246 248 250 252 253 254 256 259 261 263 264 265 267 270 271 272 273 275 276 277 278 278 278 278 279 281 282 281 281 282 282
235 236 238 239 240 240 241 242 243 243 244 244 245 246 248 250 252 254 256 257 259 263 265 266 266 267 269 271 272 274 275 276 276 277 276 277 278 278 279 280 281 282 282 281
234 234 235 237 238 238 239 240 241 242 243 243 244 245 248 250 252 254 257 260 262 264 266 266 266 267 269 272 273 273 274 275 275 277 279 277 276 276 277 279 280 282 283 281
232 233 233 236 237 237 239 241 242 242 242 244 246 248 250 252 254 255 257 260 262 264 265 266 267 269 270 271 272 273 275 276 277 279 279 278 277 277 278 279 280 280 280 280
229 229 231 234 236 237 239 240 242 242 245 247 249 251 253 254 256 257 259 260 261 263 264 266 268 270 271 272 272 274 275 277 278 278 279 278 277 277 279 280 279 278 278 279
228 228 231 233 237 238 240 242 243 244 246 247 250 252 254 257 258 259 259 260 261 263 265 267 268 270 271 272 274 275 276 276 277 277 278 279 278 279 280 279 277 276 277 277
228 230 232 235 239 241 242 243 243 244 245 246 249 251 254 257 259 260 261 261 262 263 265 267 268 270 272 273 275 275 275 276 277 277 278 278 278 279 278 276 275 276 277 277
226 228 231 235 239 242 243 244 245 245 245 247 249 252 254 257 259 261 261 261 263 264 267 269 270 271 273 274 275 275 275 276 277 278 279 278 278 278 277 276 275 276 277 276
227 229 231 234 238 240 241 242 245 246 247 249 251 255 256 258 260 262 263 264 265 266 268 270 271 272 273 274 275 275 276 276 277 277 277 275 276 277 277 277 277 275 275 276
229 230 231 234 237 240 242 244 246 248 249 251 253 256 259 261 262 264 266 267 268 269 271 273 274 273 273 274 276 277 277 277 278 277 277 275 275 276 276 275 275 275 275 276
230 232 232 234 237 241 243 245 246 247 249 252 255 258 260 262 264 266 269 270 270 271 272 273 274 275 276 276 276 276 276 277 278 278 277 276 276 275 274 274 274 274 275 276
233 234 235 238 242 244 244 245 246 247 250 254 257 259 261 263 266 268 270 271 272 272 273 274 276 277 277 277 278 277 276 277 278 278 278 278 278 278 277 276 274 274 274 275
235 237 238 241 243 243 244 245 248 250 253 256 259 261 264 266 268 267 269 271 272 273 273 274 276 277 278 279 278 277 277 277 277 278 278 279 279 279 279 278 277 276 276 275
236 238 240 242 244 244 244 246 250 253 256 259 262 264 266 268 268 268 269 269 271 273 273 272 274 276 278 279 281 280 278 278 278 277 278 278 278 279 279 278 278 279 278 276
237 241 241 242 245 248 251 252 252 255 258 260 263 265 265 265 267 269 270 269 271 271 270 273 277 279 280 282 283 282 280 279 279 279 280 281 282 282 281 279 279 278 276 277
239 245 247 249 250 252 255 257 257 258 260 261 260 259 260 263 268 272 273 273 273 270 271 275 278 280 281 283 285 285 284 283 284 284 285 286 286 285 283 281 279 277 278 279
246 250 250 251 254 257 258 259 260 259 259 261 260 258 258 262 267 271 271 271 274 278 279 280 283 284 285 286 287 287 288 288 287 287 287 287 286 285 284 283 281 281 281 282
Height
5853 5856 5859 5862 5865 5868 5871 5875 5879 5882 5884 5886 5887 5889 5891 5892 5893 5894 5894 5895 5895 5896 5896 5896 5896 5896 5896 5896 5895 5895 5894 5893 5892 5891 5889 5888 5886 5885 5883 5881 5880 5878 5877 5875
5844 5848 5851 5854 5857 5861 5864 5867 5871 5874 5877 5879 5881 5883 5884 5885 5887 5888 5889 5890 5890 5891 5891 5891 5891 5891 5891 5891 5891 5890 5889 5888 5887 5886 5885 5883 5881 5879 5878 5876 5875 5873 5872 5870
5836 5840 5842 5845 5850 5853 5856 5859 5863 5866 5870 5872 5874 5875 5878 5879 5881 5882 5883 5884 5885 5885 5886 5886 5886 5886 5886 5886 5885 5885 5884 5883 5882 5880 5879 5877 5875 5874 5872 5871 5869 5868 5866 5865
5828 5831 5833 5840 5842 5846 5849 5852 5855 5858 5862 5864 5866 5868 5870 5872 5874 5875 5877 5878 5878 5879 5880 5880 5880 5879 5879 5879 5879 5879 5878 5877 5876 5874 5873 5872 5870 5868 5867 5865 5864 5863 5861 5859
5819 5822 5826 5830 5834 5838 5841 5844 5848 5850 5854 5856 5858 5860 5862 5865 5866 5868 5869 5871 5872 5873 5873 5873 5873 5873 5872 5873 5872 5871 5871 5870 5869 5868 5866 5865 5864 5862 5860 5859 5858 5856 5855 5853
5810 5814 5818 5822 5825 5829 5834 5835 5840 5842 5845 5848 5850 5853 5855 5857 5859 5860 5862 5864 5865 5865 5866 5866 5866 5866 5866 5865 5864 5863 5862 5861 5861 5859 5858 5857 5856 5855 5853 5852 5850 5849 5848 5846
5800 5804 5809 5812 5816 5821 5825 5828 5831 5833 5836 5839 5841 5844 5846 5848 5850 5852 5854 5855 5857 5857 5858 5858 5858 5858 5857 5857 5856 5855 5854 5853 5852 5850 5850 5849 5847 5846 5845 5844 5842 5841 5839 5838
5790 5795 5801 5803 5807 5811 5814 5818 5821 5824 5827 5830 5832 5834 5837 5839 5842 5843 5845 5847 5848 5849 5849 5850 5850 5850 5849 5848 5848 5847 5846 5845 5843 5842 5841 5840 5839 5837 5836 5835 5833 5832 5831 5829
5781 5787 5790 5793 5797 5801 5804 5808 5811 5814 5818 5820 5823 5826 5828 5831 5833 5835 5836 5838 5839 5840 5840 5840 5840 5840 5840 5839 5839 5838 5837 5836 5835 5834 5832 5831 5829 5828 5827 5826 5824 5823 5822 5820
5771 5775 5780 5784 5787 5791 5795 5799 5802 5805 5808 5811 5814 5817 5819 5821 5823 5825 5827 5828 5829 5830 5830 5831 5831 5830 5830 5830 5829 5828 5828 5827 5826 5824 5823 5821 5820 5819 5817 5816 5815 5813 5811 5810
5761 5766 5770 5774 5778 5782 5785 5789 5792 5795 5798 5801 5804 5807 5809 5812 5813 5815 5816 5818 5819 5819 5820 5820 5820 5820 5819 5819 5819 5818 5818 5817 5816 5814 5813 5812 5810 5809 5808 5806 5805 5803 5801 5799
5752 5757 5761 5765 5769 5773 5776 5779 5782 5785 5788 5791 5794 5797 5800 5801 5803 5805 5806 5807 5808 5809 5809 5809 5810 5810 5810 5809 5809 5808 5807 5806 5805 5803 5802 5801 5800 5799 5797 5796 5795 5793 5790 5788
5743 5747 5752 5756 5760 5763 5767 5770 5773 5776 5779 5782 5784 5787 5789 5791 5793 5795 5796 5797 5798 5799 5799 5799 5799 5799 5799 5799 5799 5798 5797 5795 5794 5792 5790 5789 5788 5787 5786 5785 5783 5782 5780 5778
5734 5739 5743 5748 5751 5755 5758 5761 5764 5767 5769 5772 5775 5777 5779 5781 5783 5785 5786 5787 5788 5788 5788 5788 5788 5788 5788 5788 5788 5787 5786 5784 5783 5781 5779 5778 5777 5776 5775 5773 5772 5770 5769 5767
5727 5731 5736 5740 5744 5747 5750 5753 5756 5758 5760 5763 5765 5768 5770 5771 5773 5774 5776 5776 5777 5777 5778 5778 5778 5778 5777 5777 5776 5776 5775 5774 5772 5770 5769 5766 5765 5764 5763 5761 5759 5758 5757 5756
5719 5724 5728 5732 5736 5739 5742 5745 5747 5749 5752 5754 5756 5758 5760 5761 5763 5764 5765 5766 5766 5767 5767 5767 5767 5767 5766 5765 5765 5764 5763 5761 5760 5758 5757 5755 5753 5752 5751 5749 5748 5747 5746 5745
5712 5716 5720 5724 5728 5731 5733 5736 5738 5741 5743 5745 5747 5749 5751 5752 5753 5754 5754 5755 5756 5756 5756 5756 5756 5755 5754 5754 5753 5751 5750 5749 5747 5745 5744 5742 5741 5740 5739 5738 5737 5736 5735 5734
5705 5709 5712 5716 5719 5722 5725 5727 5729 5732 5734 5737 5739 5740 5741 5743 5743 5744 5744 5744 5745 5745 5745 5745 5744 5744 5743 5741 5740 5739 5738 5736 5735 5733 5732 5730 5729 5728 5727 5726 5725 5724 5723 5722
5698 5702 5705 5709 5712 5714 5716 5719 5721 5724 5726 5728 5730 5731 5732 5733 5733 5734 5734 5734 5734 5734 5734 5733 5732 5731 5730 5729 5728 5726 5725 5724 5722 5720 5719 5718 5717 5716 5715 5715 5714 5713 5712 5710
5692 5695 5698 5701 5704 5707 5709 5711 5713 5715 5717 5719 5720 5722 5722 5723 5723 5723 5723 5723 5723 5723 5722 5722 5720 5719 5718 5717 5715 5714 5713 5711 5710 5708 5707 5706 5705 5704 5704 5703 5702 5701 5700 5699
5686 5689 5692 5695 5697 5700 5702 5704 5706 5707 5709 5710 5712 5713 5714 5714 5714 5713 5713 5713 5712 5711 5711 5710 5709 5708 5706 5705 5704 5702 5701 5700 5698 5697 5696 5695 5693 5693 5692 5691 5691 5690 5689 5688
5680 5683 5685 5688 5690 5692 5695 5696 5698 5700 5701 5702 5703 5704 5704 5704 5704 5704 5703 5703 5702 5701 5701 5700 5699 5697 5696 5694 5692 5691 5690 5689 5687 5686 5685 5684 5683 5682 5681 5680 5679 5679 5678 5677
5674 5676 5679 5681 5683 5685 5687 5689 5691 5692 5693 5694 5694 5695 5695 5695 5695 5694 5694 5693 5693 5692 5691 5690 5689 5688 5686 5684 5682 5681 5680 5679 5678 5677 5676 5674 5673 5672 5671 5670 5669 5669 5668 5667
5669 5671 5673 5675 5677 5679 5680 5681 5683 5684 5685 5686 5686 5686 5687 5687 5686 5686 5685 5684 5684 5683 5682 5681 5680 5679 5678 5676 5674 5673 5671 5670 5669 5668 5667 5665 5664 5663 5662 5661 5660 5659 5658 5657
5665 5666 5668 5670 5672 5673 5674 5675 5676 5677 5678 5679 5679 5679 5679 5679 5679 5678 5677 5677 5676 5675 5675 5674 5673 5672 5670 5669 5667 5665 5664 5663 5661 5660 5658 5657 5656 5654 5653 5652 5651 5650 5649 5648
5661 5662 5663 5665 5666 5668 5669 5670 5670 5671 5671 5672 5672 5672 5673 5673 5672 5672 5671 5670 5670 5669 5668 5668 5666 5665 5664 5662 5660 5659 5657 5655 5654 5652 5651 5649 5647 5646 5644 5643 5642 5641 5640 5639
5658 5659 5659 5660 5661 5662 5664 5665 5665 5666 5666 5666 5667 5667 5667 5667 5667 5667 5666 5665 5664 5663 5662 5661 5660 5658 5657 5655 5654 5652 5650 5648 5647 5645 5643 5641 5639 5638 5636 5635 5634 5633 5631 5630